"Pseudo-MPEC" for C36XRC2

Created 2020 Sep 19 22:07:08 UT using Find_Orb

Click here for an explanation of pseudo-MPECs

 
 Astrometry: 
     C36XRC2  C2020 09 15.36262 00 43 13.14 -04 38 21.7    ~9F9M 18.0 GVNEOCPG96
     C36XRC2  C2020 09 15.36772 00 43 35.59 -04 35 09.9    ~9F9M 17.9 GVNEOCPG96
     C36XRC2  C2020 09 15.37281 00 43 58.11 -04 31 59.5    ~9F9M 18.0 GVNEOCPG96
     C36XRC2  C2020 09 15.41761 00 47 24.36 -04 02 50.9    ~9FAM 17.6 GVNEOCPI52
     C36XRC2  C2020 09 15.41801 00 47 26.26 -04 02 35.4    ~9FAM 17.7 GVNEOCPI52
     C36XRC2  C2020 09 15.41840 00 47 28.17 -04 02 19.8    ~9FAM 17.7 GVNEOCPI52
     C36XRC2  C2020 09 15.41879 00 47 30.05 -04 02 03.9    ~9FAM 17.6 GVNEOCPI52

Station data:
(G96) Mt. Lemmon Survey  (N32.442754 W110.788720)  US/Arizona.  Observers T.
   A. Pruyne, B. M. Africano, E. J. Christensen, G. A. Farneth, D. C. Fuls,
   A. R. Gibbs, A. D. Grauer, H. Gröller, J. A. Johnson, R. A. Kowalski, S.
   M. Larson, G. J. Leonard, D. Rankin, R. L. Seaman, F. C. Shelly. 1.5-m
   reflector + 10K CCD.
(I52) Steward Observatory, Mt. Lemmon Station  (N32.442547 W110.788920)
   US/Arizona.  Observers T. A. Pruyne, B. M. Africano, E. J. Christensen, G.
   A. Farneth, D. C. Fuls, A. R. Gibbs, A. D. Grauer, H. Gröller, J. A.
   Johnson, R. A. Kowalski, S. M. Larson, G. J. Leonard, D. Rankin, R. L.
   Seaman, F. C. Shelly. 1.0-m reflector + CCD.

Orbital elements:  C36XRC2
   Perigee 2020 Sep 16.700457 +/- 0.159 TT = 16:48:39 (JD 2459109.200457)
Epoch 2020 Sep 15.0 TT = JDT 2459107.5                        AutoNEOCP
M 355.92955448 +/- 70               (J2000 equator)
n   2.39373652 +/-                  Peri.   86.35456 +/- 20
a   0.00798534 +/-                  Node    19.99876 +/- 12
e   0.9129729 +/- 1.15              Incl.   21.92943 +/- 0.013
P 150.39d                  H 31.4   G  0.15   U 15.2  
q 103961.682 +/- 56540    Q 0.01527575 +/- 0.0418
From 7 observations 2020 Sept. 15 (80.9 min); mean residual 0".34
Residuals in arcseconds: 
200915 G96  .10-  .33-    200915 I52  .11-  .44+    200915 I52  .29+  .03-    
200915 G96  .16+  .81+    200915 I52  .38-  .14-    
200915 G96  .04-  .50-    200915 I52  .19+  .24-    

Ephemerides (geocentric):
Date (UTC) HH   RA              Dec         delta   r     elong  mag " sig PA
---- -- -- --  -------------   -----------  ------ ------ -----  --- ---- ---
2020 09 19 22  15 14 50.486   -11 02 21.59  411837 1.0027  52.5 24?? 164d 112
2020 09 19 23  15 16 04.758   -11 08 50.60  415625 1.0026  52.7 24?? 166d 112
2020 09 20 00  15 17 17.634   -11 15 11.28  419394 1.0026  53.0 24?? 169d 114
2020 09 20 01  15 18 29.159   -11 21 23.94  423143 1.0026  53.3 24?? 172d 117
2020 09 20 02  15 19 39.376   -11 27 28.84  426873 1.0026  53.5 24?? 175d 124
2020 09 20 03  15 20 48.327   -11 33 26.26  430583 1.0026  53.8 24?? 179d 179
2020 09 20 04  15 21 56.052   -11 39 16.45  434274 1.0026  54.0 24?? 176d  88
2020 09 20 05  15 23 02.591   -11 44 59.65  437946 1.0026  54.3 24?? 170d  98
2020 09 20 06  15 24 07.979   -11 50 36.10  441599 1.0025  54.5 24?? 164d 102
2020 09 20 07  15 25 12.252   -11 56 06.01  445233 1.0025  54.8 24?? 155d 103
2020 09 20 08  15 26 15.446   -12 01 29.62  448848 1.0025  55.0 24?? 145d 104
2020 09 20 09  15 27 17.593   -12 06 47.11  452444 1.0025  55.2 24?? 132d 105
2020 09 20 10  15 28 18.726   -12 11 58.69  456022 1.0025  55.4 24?? 115d 106
2020 09 20 11  15 29 18.874   -12 17 04.54  459581 1.0025  55.6 24??  94d 106
2020 09 20 12  15 30 18.067   -12 22 04.85  463122 1.0024  55.9 24??  68d 107
2020 09 20 13  15 31 16.335   -12 26 59.78  466644 1.0024  56.1 24??  43d 108
2020 09 20 14  15 32 13.703   -12 31 49.51  470148 1.0024  56.3 24??  21d 110
2020 09 20 15  15 33 10.200   -12 36 34.19  473635 1.0024  56.5 24?? 237' 130
2020 09 20 16  15 34 05.849   -12 41 13.98  477103 1.0024  56.7 24?? 603'  97
2020 09 20 17  15 35 00.676   -12 45 49.02  480554 1.0024  56.9 24??  21d 102
2020 09 20 18  15 35 54.705   -12 50 19.44  483987 1.0023  57.0 24??  29d 103
2020 09 20 19  15 36 47.957   -12 54 45.40  487403 1.0023  57.2 24??  36d 104
2020 09 20 20  15 37 40.455   -12 59 07.00  490802 1.0023  57.4 24??  41d 104
2020 09 20 21  15 38 32.219   -13 03 24.39  494183 1.0023  57.6 24??  46d 104
2020 09 20 22  15 39 23.270   -13 07 37.67  497548 1.0023  57.8 24??  50d 105
2020 09 20 23  15 40 13.628   -13 11 46.96  500896 1.0023  57.9 24??  54d 105
2020 09 21 00  15 41 03.311   -13 15 52.37  504227 1.0023  58.1 24??  57d 105
2020 09 21 01  15 41 52.337   -13 19 54.01  507541 1.0022  58.3 24??  60d 105
2020 09 21 02  15 42 40.723   -13 23 51.97  510840 1.0022  58.4 24??  63d 105
2020 09 21 03  15 43 28.487   -13 27 46.35  514122 1.0022  58.6 24??  65d 105
2020 09 21 04  15 44 15.644   -13 31 37.25  517388 1.0022  58.8 24??  67d 105
2020 09 21 05  15 45 02.209   -13 35 24.76  520639 1.0022  58.9 24??  70d 105
2020 09 21 06  15 45 48.199   -13 39 08.96  523874 1.0022  59.1 24??  71d 105
2020 09 21 07  15 46 33.626   -13 42 49.93  527093 1.0022  59.2 24??  73d 105
2020 09 21 08  15 47 18.505   -13 46 27.76  530297 1.0021  59.4 24??  75d 105
2020 09 21 09  15 48 02.849   -13 50 02.52  533486 1.0021  59.5 24??  76d 105
2020 09 21 10  15 48 46.671   -13 53 34.29  536660 1.0021  59.7 24??  78d 105
2020 09 21 11  15 49 29.984   -13 57 03.14  539819 1.0021  59.8 24??  79d 105
2020 09 21 12  15 50 12.798   -14 00 29.13  542963 1.0021  59.9 24.0  81d 105
2020 09 21 13  15 50 55.127   -14 03 52.33  546093 1.0021  60.1 24.0  82d 105
2020 09 21 14  15 51 36.980   -14 07 12.82  549208 1.0021  60.2 24.0  83d 105
2020 09 21 15  15 52 18.369   -14 10 30.64  552309 1.0020  60.3 24.1  84d 105
2020 09 21 16  15 52 59.303   -14 13 45.86  555396 1.0020  60.5 24.1  85d 105
2020 09 21 17  15 53 39.794   -14 16 58.54  558469 1.0020  60.6 24.1  87d 105
2020 09 21 18  15 54 19.850   -14 20 08.74  561528 1.0020  60.7 24.1  88d 105
2020 09 21 19  15 54 59.480   -14 23 16.50  564574 1.0020  60.9 24.1  89d 105
2020 09 21 20  15 55 38.695   -14 26 21.88  567605 1.0020  61.0 24.1  90d 105
2020 09 21 21  15 56 17.501   -14 29 24.93  570624 1.0019  61.1 24.1  91d 105